Location: Miles
(41.4492°N, 81.6087°W)
Time: 23:53:02
(UTC+00:00)

Tiros 1 despin weight - Visible Passes

Search period start: 11 September 2024 00:00
Search period end: 21 September 2024 00:00
Orbit: 573 x 617 km, 48.2° (Epoch: 11 September)

Date Brightness Start Highest point End Pass type
(mag) Time Alt. Az. Time Alt. Az. Time Alt. Az.
11 Sep ? 09:41:14 21° SSW 09:44:00 52° SE 09:48:26 10° ENE visible
12 Sep ? 08:13:37 16° ESE 08:13:37 16° ESE 08:15:30 10° E visible
12 Sep ? 09:50:12 23° SW 09:53:03 82° SSE 09:57:37 10° ENE visible
13 Sep ? 08:22:30 26° ESE 08:22:30 26° ESE 08:25:18 10° ENE visible
13 Sep ? 09:59:06 20° WSW 10:02:11 69° NNW 10:06:44 10° ENE visible
14 Sep ? 08:31:19 40° ESE 08:31:19 40° ESE 08:34:39 10° ENE visible
14 Sep ? 10:07:55 16° W 10:11:22 50° NNW 10:15:49 10° ENE visible
15 Sep ? 08:40:04 58° E 08:40:04 58° E 08:43:49 10° ENE visible
15 Sep ? 10:16:39 12° W 10:20:36 40° NNW 10:24:55 10° ENE visible
16 Sep ? 08:48:46 66° NNE 08:48:46 66° NNE 08:52:52 10° ENE visible
16 Sep ? 10:25:39 10° WNW 10:29:52 36° N 10:34:04 10° ENE visible
17 Sep ? 08:57:25 52° NNW 08:57:25 52° NNW 09:01:54 10° ENE visible
17 Sep ? 10:34:57 10° WNW 10:39:07 34° N 10:43:18 10° ENE visible
18 Sep ? 07:29:28 12° ENE 07:29:28 12° ENE 07:29:50 10° ENE visible
18 Sep ? 09:06:03 39° NNW 09:06:36 41° NNW 09:10:56 10° ENE visible
19 Sep ? 07:38:04 15° ENE 07:38:04 15° ENE 07:38:50 10° ENE visible
19 Sep ? 09:14:39 31° NW 09:15:48 36° N 09:20:01 10° ENE visible
20 Sep ? 07:46:40 17° NE 07:46:40 17° NE 07:47:48 10° ENE visible
20 Sep ? 09:23:14 25° NW 09:25:00 34° N 09:29:10 10° ENE visible
